Location: Newark
(48.0679°N, 114.0387°W)
Time: 16:29:28
(UTC+00:00)

N. Korean satellite - Visible Passes

Search period start: 17 September 2019 00:00
Search period end: 27 September 2019 00:00
Orbit: 455 x 508 km, 97.2° (Epoch: 16 September)

Date Brightness Start Highest point End Pass type
(mag) Time Alt. Az. Time Alt. Az. Time Alt. Az.
17 Sep 10.0 12:34:29 10° ENE 12:36:08 13° E 12:37:46 10° ESE visible
21 Sep 10.4 12:27:45 10° ENE 12:28:33 11° E 12:29:21 10° ESE visible
24 Sep 9.8 12:44:06 10° NE 12:46:26 17° E 12:48:45 10° SE visible
